TimeEDT,TemperatureF,Dew PointF,Humidity,Sea Level PressureIn,VisibilityMPH,Wind Direction,Wind SpeedMPH,Gust SpeedMPH,PrecipitationIn,Events,Conditions,WindDirDegrees,DateUTC
12:53 AM,69.1,66.0,90,30.05,5.0,Calm,Calm,-,N/A,,Clear,0,2013-09-20 04:53:00
1:53 AM,68.0,66.0,93,30.04,7.0,Calm,Calm,-,N/A,,Clear,0,2013-09-20 05:53:00
2:53 AM,68.0,64.9,90,30.04,8.0,Calm,Calm,-,N/A,,Clear,0,2013-09-20 06:53:00
3:53 AM,68.0,64.0,87,30.04,8.0,Calm,Calm,-,N/A,,Clear,0,2013-09-20 07:53:00
4:53 AM,66.9,64.0,90,30.02,8.0,Calm,Calm,-,N/A,,Clear,0,2013-09-20 08:53:00
5:53 AM,66.9,64.0,90,30.02,8.0,Calm,Calm,-,N/A,,Clear,0,2013-09-20 09:53:00
6:53 AM,66.0,63.0,90,30.03,8.0,Calm,Calm,-,N/A,,Clear,0,2013-09-20 10:53:00
7:53 AM,66.0,63.0,90,30.04,8.0,Calm,Calm,-,N/A,,Clear,0,2013-09-20 11:53:00
8:53 AM,68.0,64.0,87,30.04,8.0,Variable,3.5,-,N/A,,Clear,0,2013-09-20 12:53:00
9:53 AM,71.1,64.9,81,30.04,10.0,Variable,3.5,-,N/A,,Clear,0,2013-09-20 13:53:00
10:53 AM,73.9,64.9,73,30.03,10.0,Calm,Calm,-,N/A,,Clear,0,2013-09-20 14:53:00
11:53 AM,78.1,66.0,66,30.01,10.0,Calm,Calm,-,N/A,,Clear,0,2013-09-20 15:53:00
12:53 PM,79.0,66.0,64,29.99,9.0,Calm,Calm,-,N/A,,Clear,0,2013-09-20 16:53:00
1:53 PM,80.1,66.0,62,29.97,10.0,Variable,3.5,-,N/A,,Mostly Cloudy,0,2013-09-20 17:53:00
2:53 PM,80.1,66.0,62,29.95,10.0,Calm,Calm,-,N/A,,Mostly Cloudy,0,2013-09-20 18:53:00
3:53 PM,81.0,66.0,60,29.91,10.0,Variable,3.5,-,N/A,,Partly Cloudy,0,2013-09-20 19:53:00
4:53 PM,82.0,66.0,58,29.90,10.0,Calm,Calm,-,N/A,,Clear,0,2013-09-20 20:53:00
5:53 PM,80.1,64.0,58,29.88,10.0,Calm,Calm,-,N/A,,Clear,0,2013-09-20 21:53:00
6:53 PM,77.0,64.9,66,29.88,10.0,Calm,Calm,-,N/A,,Clear,0,2013-09-20 22:53:00
7:53 PM,73.0,64.9,76,29.88,10.0,Calm,Calm,-,N/A,,Clear,0,2013-09-20 23:53:00
8:53 PM,72.0,64.9,78,29.88,10.0,Calm,Calm,-,N/A,,Clear,0,2013-09-21 00:53:00
9:53 PM,71.1,64.9,81,29.87,10.0,Calm,Calm,-,N/A,,Clear,0,2013-09-21 01:53:00
10:53 PM,70.0,64.9,84,29.86,10.0,Calm,Calm,-,N/A,,Clear,0,2013-09-21 02:53:00
11:53 PM,69.1,64.0,84,29.85,10.0,Calm,Calm,-,N/A,,Clear,0,2013-09-21 03:53:00